Time,TemperatureF,DewpointF,PressureIn,WindDirection,WindDirectionDegrees,WindSpeedMPH,WindSpeedGustMPH,Humidity,HourlyPrecipIn,Conditions,Clouds,dailyrainin,SoftwareType,DateUTC
2013-04-21 00:03:00,46.0,35.0,30.25,North,353,6.0,27.0,64,0.00,,,0.58,,2013-04-21 04:03:00,
2013-04-21 00:12:00,43.0,33.0,30.27,NNW,334,7.0,7.0,68,0.00,,,0.56,,2013-04-21 04:12:00,
2013-04-21 00:23:00,43.0,33.0,30.27,NNW,334,7.0,7.0,68,0.00,,,0.56,,2013-04-21 04:23:00,
2013-04-21 00:33:00,43.0,33.0,30.27,NNW,334,7.0,7.0,68,0.00,,,0.56,,2013-04-21 04:33:00,
2013-04-21 00:43:00,43.0,33.0,30.27,NNW,334,7.0,7.0,68,0.00,,,0.56,,2013-04-21 04:43:00,
2013-04-21 00:53:00,41.0,31.0,30.29,NNW,345,8.0,26.0,68,0.00,,,0.53,,2013-04-21 04:53:00,
2013-04-21 01:02:00,41.0,31.0,30.29,NNW,345,8.0,26.0,68,0.00,,,0.53,,2013-04-21 05:02:00,
2013-04-21 01:12:00,41.0,31.0,30.29,NNW,345,8.0,26.0,68,0.00,,,0.53,,2013-04-21 05:12:00,
2013-04-21 01:22:00,39.0,30.0,30.31,NNW,328,6.0,26.0,71,0.00,,,0.49,,2013-04-21 05:22:00,
2013-04-21 01:32:00,39.0,30.0,30.31,NNW,328,6.0,26.0,71,0.00,,,0.49,,2013-04-21 05:32:00,
2013-04-21 01:43:00,39.0,30.0,30.31,NNW,328,6.0,26.0,71,0.00,,,0.49,,2013-04-21 05:43:00,
2013-04-21 01:52:00,38.0,28.0,30.32,NNW,344,11.0,26.0,68,0.00,,,0.40,,2013-04-21 05:52:00,
2013-04-21 02:01:00,38.0,28.0,30.32,NNW,344,11.0,26.0,68,0.00,,,0.40,,2013-04-21 06:01:00,
2013-04-21 02:12:00,37.0,28.0,30.34,NW,324,2.0,26.0,70,0.00,,,0.37,,2013-04-21 06:12:00,
2013-04-21 02:22:00,37.0,28.0,30.34,NW,324,2.0,26.0,70,0.00,,,0.37,,2013-04-21 06:22:00,
2013-04-21 02:32:00,37.0,28.0,30.34,NW,324,2.0,26.0,70,0.00,,,0.37,,2013-04-21 06:32:00,
2013-04-21 02:42:00,37.0,28.0,30.34,NW,324,2.0,26.0,70,0.00,,,0.37,,2013-04-21 06:42:00,
2013-04-21 02:52:00,35.0,28.0,30.35,WNW,296,3.0,26.0,74,0.00,,,0.37,,2013-04-21 06:52:00,
2013-04-21 03:01:00,35.0,28.0,30.35,WNW,296,3.0,26.0,74,0.00,,,0.37,,2013-04-21 07:01:00,
2013-04-21 03:12:00,35.0,26.0,30.37,NNW,332,8.0,26.0,70,0.00,,,0.35,,2013-04-21 07:12:00,
2013-04-21 03:21:00,35.0,26.0,30.37,NNW,332,8.0,26.0,70,0.00,,,0.35,,2013-04-21 07:21:00,
2013-04-21 03:32:00,35.0,26.0,30.37,NNW,332,8.0,26.0,70,0.00,,,0.35,,2013-04-21 07:32:00,
2013-04-21 03:42:00,35.0,26.0,30.37,NNW,332,8.0,26.0,70,0.00,,,0.35,,2013-04-21 07:42:00,
2013-04-21 03:52:00,35.0,26.0,30.37,NNW,332,8.0,26.0,70,0.00,,,0.35,,2013-04-21 07:52:00,
2013-04-21 04:01:00,35.0,26.0,30.37,NNW,332,8.0,26.0,70,0.00,,,0.35,,2013-04-21 08:01:00,
2013-04-21 04:12:00,31.0,24.0,30.39,NNW,339,5.0,26.0,74,0.00,,,0.32,,2013-04-21 08:12:00,
2013-04-21 04:22:00,31.0,24.0,30.39,NNW,339,5.0,26.0,74,0.00,,,0.32,,2013-04-21 08:22:00,
2013-04-21 04:32:00,31.0,24.0,30.39,NNW,339,5.0,26.0,74,0.00,,,0.32,,2013-04-21 08:32:00,
2013-04-21 04:42:00,31.0,24.0,30.39,NNW,339,5.0,26.0,74,0.00,,,0.32,,2013-04-21 08:42:00,
2013-04-21 04:52:00,30.0,23.0,30.40,NNW,332,9.0,26.0,75,0.00,,,0.32,,2013-04-21 08:52:00,
2013-04-21 05:02:00,30.0,23.0,30.40,NNW,332,9.0,26.0,75,0.00,,,0.32,,2013-04-21 09:02:00,
2013-04-21 05:12:00,32.0,25.0,30.42,NNW,339,4.0,26.0,76,0.00,,,0.32,,2013-04-21 09:12:00,
2013-04-21 05:21:00,32.0,25.0,30.42,NNW,339,4.0,26.0,76,0.00,,,0.32,,2013-04-21 09:21:00,
2013-04-21 05:32:00,32.0,25.0,30.42,NNW,339,4.0,26.0,76,0.00,,,0.32,,2013-04-21 09:32:00,
2013-04-21 05:43:00,32.0,25.0,30.42,NNW,339,4.0,26.0,76,0.00,,,0.32,,2013-04-21 09:43:00,
2013-04-21 05:53:00,33.0,27.0,30.44,NNW,341,4.0,26.0,77,0.00,,,0.28,,2013-04-21 09:53:00,
2013-04-21 06:03:00,33.0,27.0,30.44,NNW,341,4.0,26.0,77,0.00,,,0.28,,2013-04-21 10:03:00,
2013-04-21 06:12:00,32.0,26.0,30.46,WNW,289,1.0,26.0,78,0.00,,,0.20,,2013-04-21 10:12:00,
2013-04-21 06:22:00,32.0,26.0,30.46,WNW,289,1.0,26.0,78,0.00,,,0.20,,2013-04-21 10:22:00,
2013-04-21 06:32:00,32.0,26.0,30.46,WNW,289,1.0,26.0,78,0.00,,,0.20,,2013-04-21 10:32:00,
2013-04-21 06:42:00,32.0,26.0,30.46,WNW,289,1.0,26.0,78,0.00,,,0.20,,2013-04-21 10:42:00,
2013-04-21 06:52:00,32.0,26.0,30.48,NNE,17,3.0,26.0,79,0.00,,,0.16,,2013-04-21 10:52:00,
2013-04-21 07:02:00,32.0,26.0,30.48,NNE,17,3.0,26.0,79,0.00,,,0.16,,2013-04-21 11:02:00,
2013-04-21 07:12:00,32.0,26.0,30.48,NNE,17,3.0,26.0,79,0.00,,,0.16,,2013-04-21 11:12:00,
2013-04-21 07:22:00,33.0,27.0,30.50,North,0,0.0,26.0,78,0.00,,,0.09,,2013-04-21 11:22:00,
2013-04-21 07:34:00,33.0,27.0,30.50,North,0,0.0,26.0,78,0.00,,,0.09,,2013-04-21 11:34:00,
2013-04-21 07:42:00,33.0,27.0,30.50,North,0,0.0,26.0,78,0.00,,,0.09,,2013-04-21 11:42:00,
2013-04-21 07:52:00,33.0,27.0,30.50,North,0,0.0,26.0,78,0.00,,,0.09,,2013-04-21 11:52:00,
2013-04-21 08:12:00,35.0,27.0,30.53,North,351,4.0,26.0,73,0.00,,,0.01,,2013-04-21 12:12:00,
2013-04-21 08:22:00,35.0,27.0,30.53,North,351,4.0,26.0,73,0.00,,,0.01,,2013-04-21 12:22:00,
2013-04-21 08:32:00,35.0,27.0,30.53,North,351,4.0,26.0,73,0.00,,,0.01,,2013-04-21 12:32:00,
2013-04-21 08:42:00,35.0,27.0,30.53,North,351,4.0,26.0,73,0.00,,,0.01,,2013-04-21 12:42:00,
2013-04-21 08:52:00,37.0,28.0,30.53,NNE,16,2.0,26.0,71,0.00,,,0.00,,2013-04-21 12:52:00,
2013-04-21 09:01:00,37.0,28.0,30.53,NNE,16,2.0,26.0,71,0.00,,,0.00,,2013-04-21 13:01:00,
2013-04-21 09:12:00,38.0,28.0,30.54,North,11,5.0,26.0,68,0.00,,,0.00,,2013-04-21 13:12:00,
2013-04-21 09:21:00,38.0,28.0,30.54,North,11,5.0,26.0,68,0.00,,,0.00,,2013-04-21 13:21:00,
2013-04-21 09:32:00,38.0,28.0,30.54,North,11,5.0,26.0,68,0.00,,,0.00,,2013-04-21 13:32:00,
2013-04-21 09:42:00,38.0,28.0,30.54,North,11,5.0,26.0,68,0.00,,,0.00,,2013-04-21 13:42:00,
2013-04-21 09:52:00,40.0,30.0,30.55,North,354,4.0,26.0,66,0.00,,,0.00,,2013-04-21 13:52:00,
2013-04-21 10:02:00,40.0,30.0,30.55,North,354,4.0,26.0,66,0.00,,,0.00,,2013-04-21 14:02:00,
2013-04-21 10:11:00,41.0,30.0,30.55,NNE,20,1.0,26.0,64,0.00,,,0.00,,2013-04-21 14:11:00,
2013-04-21 10:21:00,41.0,30.0,30.55,NNE,20,1.0,26.0,64,0.00,,,0.00,,2013-04-21 14:21:00,
2013-04-21 10:32:00,41.0,30.0,30.55,NNE,20,1.0,26.0,64,0.00,,,0.00,,2013-04-21 14:32:00,
2013-04-21 10:42:00,41.0,30.0,30.55,NNE,20,1.0,26.0,64,0.00,,,0.00,,2013-04-21 14:42:00,
2013-04-21 10:52:00,43.0,30.0,30.57,NE,49,2.0,26.0,61,0.00,,,0.00,,2013-04-21 14:52:00,
2013-04-21 11:02:00,43.0,30.0,30.57,NE,49,2.0,26.0,61,0.00,,,0.00,,2013-04-21 15:02:00,
2013-04-21 11:11:00,43.0,30.0,30.57,NE,49,2.0,26.0,61,0.00,,,0.00,,2013-04-21 15:11:00,
2013-04-21 11:22:00,44.0,30.0,30.57,NE,34,3.0,26.0,57,0.00,,,0.00,,2013-04-21 15:22:00,
2013-04-21 11:33:00,44.0,30.0,30.57,NE,34,3.0,26.0,57,0.00,,,0.00,,2013-04-21 15:33:00,
2013-04-21 11:43:00,44.0,30.0,30.57,NE,34,3.0,26.0,57,0.00,,,0.00,,2013-04-21 15:43:00,
2013-04-21 11:53:00,44.0,29.0,30.58,North,0,1.0,26.0,55,0.00,,,0.00,,2013-04-21 15:53:00,
2013-04-21 12:03:00,44.0,29.0,30.58,North,0,1.0,26.0,55,0.00,,,0.00,,2013-04-21 16:03:00,
2013-04-21 12:13:00,47.0,31.0,30.58,North,351,2.0,26.0,53,0.00,,,0.00,,2013-04-21 16:13:00,
2013-04-21 12:23:00,47.0,31.0,30.58,North,351,2.0,26.0,53,0.00,,,0.00,,2013-04-21 16:23:00,
2013-04-21 12:33:00,47.0,31.0,30.58,North,351,2.0,26.0,53,0.00,,,0.00,,2013-04-21 16:33:00,
2013-04-21 12:42:00,47.0,31.0,30.58,North,351,2.0,26.0,53,0.00,,,0.00,,2013-04-21 16:42:00,
2013-04-21 12:53:00,48.0,30.0,30.58,NE,42,1.0,26.0,49,0.00,,,0.00,,2013-04-21 16:53:00,
2013-04-21 13:02:00,48.0,30.0,30.58,NE,42,1.0,26.0,49,0.00,,,0.00,,2013-04-21 17:02:00,
2013-04-21 13:12:00,49.0,29.0,30.57,NNE,15,5.0,26.0,46,0.00,,,0.00,,2013-04-21 17:12:00,
2013-04-21 13:23:00,49.0,29.0,30.57,NNE,15,5.0,26.0,46,0.00,,,0.00,,2013-04-21 17:23:00,
2013-04-21 13:32:00,49.0,29.0,30.57,NNE,15,5.0,26.0,46,0.00,,,0.00,,2013-04-21 17:32:00,
2013-04-21 13:42:00,49.0,29.0,30.57,NNE,15,5.0,26.0,46,0.00,,,0.00,,2013-04-21 17:42:00,
2013-04-21 13:52:00,51.0,31.0,30.57,NNE,12,4.0,26.0,46,0.00,,,0.00,,2013-04-21 17:52:00,
2013-04-21 14:02:00,51.0,31.0,30.57,NNE,12,4.0,26.0,46,0.00,,,0.00,,2013-04-21 18:02:00,
2013-04-21 14:11:00,51.0,31.0,30.57,NNE,12,4.0,26.0,46,0.00,,,0.00,,2013-04-21 18:11:00,
2013-04-21 14:22:00,50.0,27.0,30.57,NW,306,4.0,26.0,41,0.00,,,0.00,,2013-04-21 18:22:00,
2013-04-21 14:32:00,50.0,27.0,30.57,NW,306,4.0,26.0,41,0.00,,,0.00,,2013-04-21 18:32:00,
2013-04-21 14:42:00,50.0,27.0,30.57,NW,306,4.0,26.0,41,0.00,,,0.00,,2013-04-21 18:42:00,
2013-04-21 14:52:00,48.0,34.0,30.57,SE,125,4.0,26.0,58,0.00,,,0.00,,2013-04-21 18:52:00,
2013-04-21 15:02:00,48.0,34.0,30.57,SE,125,4.0,26.0,58,0.00,,,0.00,,2013-04-21 19:02:00,
2013-04-21 15:12:00,48.0,34.0,30.57,SE,125,4.0,26.0,58,0.00,,,0.00,,2013-04-21 19:12:00,
2013-04-21 15:22:00,45.0,32.0,30.58,SSE,163,5.0,26.0,60,0.00,,,0.00,,2013-04-21 19:22:00,
2013-04-21 15:32:00,45.0,32.0,30.58,SSE,163,5.0,26.0,60,0.00,,,0.00,,2013-04-21 19:32:00,
2013-04-21 15:43:00,45.0,32.0,30.58,SSE,163,5.0,26.0,60,0.00,,,0.00,,2013-04-21 19:43:00,
2013-04-21 15:52:00,45.0,32.0,30.58,SE,145,5.0,26.0,59,0.00,,,0.00,,2013-04-21 19:52:00,
2013-04-21 16:02:00,45.0,32.0,30.58,SE,145,5.0,26.0,59,0.00,,,0.00,,2013-04-21 20:02:00,
2013-04-21 16:11:00,45.0,32.0,30.58,South,182,1.0,26.0,59,0.00,,,0.00,,2013-04-21 20:11:00,
2013-04-21 16:22:00,45.0,32.0,30.58,South,182,1.0,26.0,59,0.00,,,0.00,,2013-04-21 20:22:00,
2013-04-21 16:32:00,45.0,32.0,30.58,South,182,1.0,26.0,59,0.00,,,0.00,,2013-04-21 20:32:00,
2013-04-21 16:42:00,45.0,32.0,30.58,South,182,1.0,26.0,59,0.00,,,0.00,,2013-04-21 20:42:00,
2013-04-21 16:52:00,45.0,30.0,30.58,SSE,158,2.0,26.0,56,0.00,,,0.00,,2013-04-21 20:52:00,
2013-04-21 17:02:00,45.0,30.0,30.58,SSE,158,2.0,26.0,56,0.00,,,0.00,,2013-04-21 21:02:00,
2013-04-21 17:12:00,46.0,31.0,30.58,SE,142,1.0,26.0,55,0.00,,,0.00,,2013-04-21 21:12:00,
2013-04-21 17:22:00,46.0,31.0,30.58,SE,142,1.0,26.0,55,0.00,,,0.00,,2013-04-21 21:22:00,
2013-04-21 17:33:00,46.0,31.0,30.58,SE,142,1.0,26.0,55,0.00,,,0.00,,2013-04-21 21:33:00,
2013-04-21 17:43:00,46.0,31.0,30.58,SE,142,1.0,26.0,55,0.00,,,0.00,,2013-04-21 21:43:00,
2013-04-21 17:53:00,45.0,32.0,30.59,SSE,155,1.0,26.0,59,0.00,,,0.00,,2013-04-21 21:53:00,
2013-04-21 18:02:00,45.0,32.0,30.59,SSE,155,1.0,26.0,59,0.00,,,0.00,,2013-04-21 22:02:00,
2013-04-21 18:12:00,43.0,32.0,30.60,SSE,157,7.0,26.0,66,0.00,,,0.00,,2013-04-21 22:12:00,
2013-04-21 18:22:00,43.0,32.0,30.60,SSE,157,7.0,26.0,66,0.00,,,0.00,,2013-04-21 22:22:00,
2013-04-21 18:33:00,43.0,32.0,30.60,SSE,157,7.0,26.0,66,0.00,,,0.00,,2013-04-21 22:33:00,
2013-04-21 18:43:00,43.0,32.0,30.60,SSE,157,7.0,26.0,66,0.00,,,0.00,,2013-04-21 22:43:00,
2013-04-21 18:53:00,41.0,33.0,30.62,SSE,160,7.0,26.0,72,0.00,,,0.00,,2013-04-21 22:53:00,
2013-04-21 19:02:00,41.0,33.0,30.62,SSE,160,7.0,26.0,72,0.00,,,0.00,,2013-04-21 23:02:00,
2013-04-21 19:12:00,41.0,33.0,30.62,SSE,160,7.0,26.0,72,0.00,,,0.00,,2013-04-21 23:12:00,
2013-04-21 19:22:00,35.0,30.0,30.63,South,177,5.0,26.0,81,0.00,,,0.00,,2013-04-21 23:22:00,
2013-04-21 19:32:00,35.0,30.0,30.63,South,177,5.0,26.0,81,0.00,,,0.00,,2013-04-21 23:32:00,
2013-04-21 19:43:00,35.0,30.0,30.63,South,177,5.0,26.0,81,0.00,,,0.00,,2013-04-21 23:43:00,
2013-04-21 19:52:00,33.0,28.0,30.64,South,183,4.0,26.0,81,0.00,,,0.00,,2013-04-21 23:52:00,
2013-04-21 20:01:00,33.0,28.0,30.64,South,183,4.0,26.0,81,0.00,,,0.00,,2013-04-22 00:01:00,
2013-04-21 20:12:00,33.0,28.0,30.64,South,183,4.0,26.0,81,0.00,,,0.00,,2013-04-22 00:12:00,
2013-04-21 20:22:00,35.0,30.0,30.66,South,189,1.0,26.0,83,0.00,,,0.00,,2013-04-22 00:22:00,
2013-04-21 20:32:00,35.0,30.0,30.66,South,189,1.0,26.0,83,0.00,,,0.00,,2013-04-22 00:32:00,
2013-04-21 20:42:00,35.0,30.0,30.66,South,189,1.0,26.0,83,0.00,,,0.00,,2013-04-22 00:42:00,
2013-04-21 20:52:00,35.0,31.0,30.68,South,174,0.0,26.0,86,0.00,,,0.00,,2013-04-22 00:52:00,
2013-04-21 21:01:00,35.0,31.0,30.68,South,174,0.0,26.0,86,0.00,,,0.00,,2013-04-22 01:01:00,
2013-04-21 21:12:00,35.0,31.0,30.68,South,174,0.0,26.0,86,0.00,,,0.00,,2013-04-22 01:12:00,
2013-04-21 21:22:00,34.0,31.0,30.68,South,174,0.0,26.0,88,0.00,,,0.00,,2013-04-22 01:22:00,
2013-04-21 21:32:00,34.0,31.0,30.68,South,174,0.0,26.0,88,0.00,,,0.00,,2013-04-22 01:32:00,
2013-04-21 21:42:00,34.0,31.0,30.68,South,174,0.0,26.0,88,0.00,,,0.00,,2013-04-22 01:42:00,
2013-04-21 21:52:00,37.0,35.0,30.69,South,174,0.0,26.0,92,0.00,,,0.00,,2013-04-22 01:52:00,
2013-04-21 22:02:00,37.0,35.0,30.69,South,174,0.0,26.0,92,0.00,,,0.00,,2013-04-22 02:02:00,
2013-04-21 22:12:00,35.0,33.0,30.69,South,174,0.0,26.0,94,0.00,,,0.00,,2013-04-22 02:12:00,
2013-04-21 22:21:00,35.0,33.0,30.69,South,174,0.0,26.0,94,0.00,,,0.00,,2013-04-22 02:21:00,
2013-04-21 22:32:00,35.0,33.0,30.69,South,174,0.0,26.0,94,0.00,,,0.00,,2013-04-22 02:32:00,
2013-04-21 22:42:00,35.0,33.0,30.69,South,174,0.0,26.0,94,0.00,,,0.00,,2013-04-22 02:42:00,
2013-04-21 22:52:00,36.0,35.0,30.70,South,174,0.0,26.0,95,0.00,,,0.00,,2013-04-22 02:52:00,
2013-04-21 23:02:00,36.0,35.0,30.70,South,174,0.0,26.0,95,0.00,,,0.00,,2013-04-22 03:02:00,
2013-04-21 23:11:00,36.0,35.0,30.70,South,174,0.0,26.0,95,0.00,,,0.00,,2013-04-22 03:11:00,
2013-04-21 23:22:00,35.0,33.0,30.70,South,174,0.0,26.0,94,0.00,,,0.00,,2013-04-22 03:22:00,
2013-04-21 23:33:00,35.0,33.0,30.70,South,174,0.0,26.0,94,0.00,,,0.00,,2013-04-22 03:33:00,
2013-04-21 23:43:00,35.0,33.0,30.70,South,174,0.0,26.0,94,0.00,,,0.00,,2013-04-22 03:43:00,
2013-04-21 23:53:00,34.0,33.0,30.69,South,174,0.0,26.0,96,0.00,,,0.00,,2013-04-22 03:53:00,